Regional Weather Roundup
Issued by NWS Wakefield, VA

Home | Current Version | Previous Version | Graphics & Text | Print | Product List | Glossary On
Versions: 1 2 3 4 5 6 7 8 9 10 11 12 13 14 15 16 17 18 19 20 21 22 23 24 25 26 27 28 29 30 31 32 33 34 35 36 37 38 39 40 41 42 43 44 45 46 47 48 49 50
000
ASUS41 KAKQ 220510
RWRAKQ

REGIONAL WEATHER ROUNDUP
NATIONAL WEATHER SERVICE WAKEFIELD VA
100 AM EDT FRI AUG 22 2014

Note: "fair" indicates few or no clouds below 12,000 feet with no
significant weather and/or obstructions to visibility. * = Denotes
station may not report precipitation (e.g., rain,snow,etc.),
thunder or fog.

VAZ042-051-052>054-056-220600-
NORTHERN VIRGINIA

CITY           SKY/WX    TMP DP  RH WIND       PRES   REMARKS
WASH NATIONAL  PTCLDY    77  70  79 CALM      29.98F
DULLES         PTCLDY    70  69  97 CALM      30.00S
FORT BELVOIR   FOG       71  70  97 CALM      29.99S VSB 1/2
QUANTICO       PTCLDY    76  72  87 W6        30.00S
FREDERICKSBRG* CLOUDY    78  75  92 CALM      29.98F
STAFFORD*      FOG       72  72 100 CALM      30.03S VSB 1
WARRENTON      FOG       71  71 100 CALM      29.99F VSB<1/4
CULPEPER*      CLEAR    N/A N/A N/A CALM      30.00F HAZE
MANASSAS*      CLEAR     72  72 100 NE3       29.99F
LEESBURG*      CLEAR     73  70  88 NW8       30.01S
WINCHESTER     PTCLDY    70  64  83 CALM      30.03S
$$

VAZ048-049-060>072-079>083-220600-
CENTRAL AND SOUTH CENTRAL VIRGINIA...AND NORTH CENTRAL NORTH CAROLINA

CITY           SKY/WX    TMP DP  RH WIND       PRES   REMARKS
RICHMOND       CLOUDY    80  70  71 W9        29.98F
CHESTERFIELD*  CLOUDY    75  63  64 W8        30.01F
HANOVER        CLOUDY    78  68  71 W6        30.00F
TAPPAHANNOCK*  MOCLDY    75  72  91 CALM      29.99F FOG
CHARLOTTSVILLE CLOUDY    74  69  85 VRB3      30.01F
ORANGE*        CLOUDY    73  70  88 SW5       30.01F
LOUISA*        CLOUDY    73  70  88 CALM      30.00S
FARMVILLE*     PTCLDY    70  70 100 CALM      30.00F
SOUTH HILL*    MOCLDY    75  75 100 CALM      30.07S
ROANOKE RAPIDS PTCLDY    72  70  94 SW5       30.02R
RALEIGH        MOCLDY    78  72  81 CALM      30.03F
$$

VAZ088>098-220600-
SOUTHEAST VIRGINIA

CITY           SKY/WX    TMP DP  RH WIND       PRES   REMARKS
NORFOLK        MOCLDY    78  72  81 S5        29.97F
VIRGINIA BEACH CLOUDY    78  74  87 S3        29.97F
NORFOLK NAVAL  MOCLDY    81  74  79 VRB5      29.99F
WEST POINT*    CLOUDY    79  75  89 CALM      29.99F
NEWPORT NEWS   MOCLDY    83  75  77 SW7       29.98F
LANGLEY AFB    LGT RAIN  80  78  96 S6        29.97F
FORT EUSTIS    MOCLDY    79  79 100 W2        29.97F
WILLIAMSBURG*  MOCLDY    81  77  89 W5        29.99S
FRANKLIN*      PTCLDY    75  73  94 CALM      30.00S
WAKEFIELD      MOCLDY    78  73  84 CALM      29.99F
$$

VAZ020-022-025-037-045-220600-
WESTERN AND SOUTHWEST VIRGINIA

CITY           SKY/WX    TMP DP  RH WIND       PRES   REMARKS
STAUNTON*      MOCLDY    69  65  88 CALM      30.08S
HOT SPRINGS VA FOG       63  63 100 W16G22    30.20F VSB<1/4
LYNCHBURG        N/A    N/A N/A N/A SW5       30.07S
DANVILLE       FOG       71  69  93 SW3       30.06S VSB 3/4
MARTINSVILLE   MOCLDY    72  72  99 CALM      30.10S FOG
ROANOKE        MOCLDY    72  66  81 W10       30.10F
BLACKSBURG     CLEAR     66  66 100 CALM      30.17S
DUBLIN*        CLEAR     66  66 100 CALM      30.17S
MARION*        PTCLDY    66  65  94 W7        30.21S
HILLSVILLE*    CLEAR     65  64  95 SW5       30.18F
RICHLANDS*     MOCLDY    68  65  92 NW3       30.20R
WISE*          MOCLDY    68  68 100 SW6       30.21S
ABINGDON*      PTCLDY    69  69 100 CALM      30.18S
$$

MDZ021>025-VAZ099-100-220600-
SOUTHERN MARYLAND AND THE DELMARVA PENINSULA

CITY           SKY/WX    TMP DP  RH WIND       PRES   REMARKS
PATUXENT RIVER NOT AVBL
BAY BRIDGE APT   N/A     77  72  83 CALM      29.97S
LEONARDTOWN    MOCLDY    75  70  83 CALM      29.99F
DOVER          LGT RAIN  73  73 100 SE6       29.96F
GEORGETOWN     CLOUDY    74  72  93 S13       29.99F
EASTON         MOCLDY    77  77 100 CALM      30.01S
CAMBRIDGE      MOCLDY    77  72  83 SE5       29.97F
SALISBURY      CLOUDY    76  72  87 CALM      29.98F
OCEAN CITY     CLOUDY    77  74  90 S5        29.99F
WALLOPS ISLAND CLOUDY    76  73  91 S3        29.98F
ACCOMACK*      CLOUDY    72  70  94 S3        29.98F
$$

NCZ012>017-030>032-220600-
EASTERN NORTH CAROLINA

CITY           SKY/WX    TMP DP  RH WIND       PRES   REMARKS
ELIZABETH CITY PTCLDY    76  75  97 SW3       29.99F FOG
AHOSKIE*       CLEAR     73  72  95 CALM      30.01S
EDENTON*       PTCLDY    76  75  96 CALM      29.99F
CURRITUCK*     PTCLDY    78  73  85 CALM      29.99F
KILL DEVIL HLS PTCLDY    79  75  88 CALM      29.98F
MANTEO         PTCLDY    79  75  89 CALM      30.00S
CAPE HATTERAS  PTCLDY    79  79 100 W5        30.00F
GOLDSBORO      MOCLDY    80  77  91 CALM      30.01R
WASHINGTON     CLOUDY    77  75  93 CALM      30.01S
GREENVILLE     MOCLDY    77  75  94 CALM      30.03R
NEW BERN       LGT RAIN  79  74  84 CALM      30.02F
WILMINGTON     PTCLDY    76  74  93 CALM      30.03F
$$

VAZ048-220600-
ELSEWHERE

CITY           SKY/WX    TMP DP  RH WIND       PRES   REMARKS
HARRISBURG PA  PTCLDY    69  66  90 CALM      29.98F
BALTIMORE      PTCLDY    73  68  84 CALM      29.97F
ANNAPOLIS      PTCLDY    75  71  87 CALM      29.97F
ANDREWS AFB    MOCLDY    74  72  95 W1        29.98F
WILMINGTON DE  CLOUDY    75  71  87 SE6       29.98F
PHILADELPHIA   CLOUDY    73  67  81 SE6       29.99F
WILDWOOD NJ*   CLOUDY    73  64  73 NE5       30.01S THUNDER
ATLANTIC CITY  LGT RAIN  73  68  84 S7        29.99F
HENDERSON NC   MOCLDY    73  72  94 SW3       30.04R FOG
GREENSBORO     MOCLDY    78  70  76 NW3       30.08S
ROCKY MOUNT    CLOUDY    75  73  93 CALM      30.02S FOG
FAYETTEVILLE   PTCLDY    77  71  82 SW3       30.02S
CHARLOTTE      MOCLDY    78  69  73 W3        30.08S
$$

VAZ100-220600-
MARINE

STATION/POSITION TIME  TEMP    WIND        PRES    WAVE   SWELL
                       AIR SEA DIR/SP/G            HT/PER HT/PER
                 (UTC) (F)     (DEG/KT/KT) (MB)    (FT/S) (FT/S)
44066 TX TWR #4  0500   72 74  110/  8/  8 1016.8F   4/ 7   3/ 7
CAPE MAY NJ      0500   74 80  310/  7/ 12 1015.1S
LEWES DE         0500   75 74  200/  4/  6 1014.9F
15NM E FENWICK I 0500   76 75              1015.2F   2/ 6
OCEAN-CITY-INLET 0500   76 76  190/  5/  9 1015.1F
WACHAPREAGUE VA  0500   76 82  180/  4/  6 1015.3S
THOMAS POINT MD  0500   78 78  250/  3/  3 1015.5F
GOOSES REEF MD   0500   79     190/ 10/ 10 1015.2F
COVE POINT MD    0500   77     140/  5/  6 1014.8F
SOLOMONS ISLAND  0500      81                N/A
BISHOPS HEAD MD  0500   78 80  150/ 10/ 12 1014.5F
PINEY POINT MD   0500          260/  5/  7   N/A
POTOMAC MD       0500   78     190/ 10/ 12 1014.0F
CAMBRIDGE MD     0500   75 79  150/  3/  4 1014.6F
LEWISETTA VA     0500   77 81  230/  5/  6 1014.4F
RAPPAHANNOCK LGT 0500          130/ 11/ 12 1015.5F
STINGRAY PT      0500   79     150/ 12/ 14 1015.6F
YORK RVR RNG VA  0500   81     220/  5/  7 1014.5S
YORKTOWN VA      0500   80 81  230/  8/ 10 1014.6F
JAMESTOWN VA     0500   79     310/  8/  8   N/A
DOMINION TERM VA 0500   80     240/  7/  9 1015.3F
KIPTOPEKE VA     0500      82  120/  7/  8   N/A
CHES BAY BRIDGE  0500   80 78  180/  6/  8 1014.5F
CAPE HENRY VA    0500   79     190/  7/  8 1013.8F
CHESAPEAKE LGHT  0400   80     170/  6/  6 1016.3F
WILLOUBY STN VA  0500   81     220/  8/  9 1013.9S
S CRANEY ISL VA  0500          190/  5/  7 1014.9F
CAPE HENRY BUOY  0500      80                N/A     2/ 7
1ST LANDING BUOY 0500   80     200/  8/ 10 1014.6F
CAPE CHARLES BUO 0500      79                N/A     2/ 7   2/ 7
OFFSHORE WE BUOY 0500      78                N/A     2/ 6   2/ 6
64NM E OF VA BCH 0500   78 78  170/  4/  4 1015.1F   2/ 7   2/ 7
DUCK PIER NC     0500   81 79  220/  4/  5 1014.7F
44056 DUCK FRF   0500                        N/A     2/ 7
OREGON INLET NC  0500   82 83  230/  6/  6 1015.7F
HATTERAS NC      0500   80 83  230/  4/  6 1016.3F
DIAMOND SHLS NC  0500   81     230/  8/ 10 1015.8F   2/ 8   2/ 8
CAPE LOOKOUT NC  0400   82     230/  7/ 10 1016.4F
$$



USA.gov is the U.S. government's official web portal to all federal, state and local government web resources and services.